Home   Weather   New City   Past weeks
Flag for USA

Past Weather in New City, New York, USA — Yesterday and Last 2 Weeks

Now
60 °F

Passing clouds.


Feels Like: 60 °F
Forecast: 74 / 61 °F
Wind: No wind

Location: Westchester County Airport

Current Time: Aug 25, 2019 at 12:51:07 am

Latest Report: Aug 24, 2019 at 11:56 pm


Visibility: 10 mi

Pressure: 30.25 "Hg

Humidity: 86%

Dew Point: 56 °F

Location of New CityLocation

Past Weather in New City — Graph

°F

New City Temperature Yesterday

Maximum temperature yesterday: 74 °F (at 3:56 pm)
Minimum temperature yesterday: 58 °F (at 5:56 am)
Average temperature yesterday: 66 °F

High & Low Weather Summary for the Past Weeks

 TemperatureHumidityPressure
High90 °F (Aug 19, 1:56 pm)100% (Aug 14, 1:44 am)30.24 "Hg (Aug 14, 1:44 am)
Low58 °F (Aug 24, 5:56 am)38% (Aug 12, 2:56 pm)29.75 "Hg (Aug 14, 2:56 am)
Average73 °F76%29.95 "Hg
* Reported Aug 9 10:56 pm — Aug 24 10:56 pm, New City. Weather by CustomWeather, © 2019

Note: Actual official high and low records may vary slightly from our data, if they occured in-between our weather recording intervals... More about our weather records

Advertising

New City Weather History for the Previous 24 Hours

Scroll right to see more
 ConditionsComfort  
Time TempWeatherWind HumidityBarometerVisibility
10:56 pm
Sat, Aug 24
61 °FPassing clouds.No wind87%30.24 "Hg10 mi
9:56 pm62 °FPassing clouds.No wind80%30.23 "Hg10 mi
8:56 pm64 °FPartly cloudy.No wind73%30.21 "Hg10 mi
7:56 pm66 °FPartly cloudy.No wind68%30.19 "Hg10 mi
6:56 pm71 °FScattered clouds.3 mph51%30.17 "Hg10 mi
5:56 pm73 °FScattered clouds.3 mph44%30.16 "Hg10 mi
4:56 pm74 °FScattered clouds.5 mph41%30.15 "Hg10 mi
3:56 pm74 °FScattered clouds.14 mph45%30.15 "Hg10 mi
2:56 pm73 °FPartly sunny.10 mph43%30.16 "Hg10 mi
1:56 pm72 °FScattered clouds.9 mph43%30.16 "Hg10 mi
12:56 pm72 °FScattered clouds.9 mph44%30.16 "Hg10 mi
11:56 am71 °FPassing clouds.12 mph45%30.16 "Hg10 mi
10:56 am69 °FPassing clouds.14 mph49%30.17 "Hg10 mi
9:56 am68 °FSunny.8 mph57%30.17 "Hg10 mi
8:56 am66 °FSunny.13 mph59%30.16 "Hg10 mi
7:56 am62 °FSunny.8 mph73%30.16 "Hg10 mi
6:56 am58 °FSunny.6 mph87%30.14 "Hg10 mi
5:56 am58 °FPassing clouds.6 mph87%30.11 "Hg10 mi
4:56 am59 °FClear.8 mph87%30.09 "Hg10 mi
3:56 am60 °FClear.10 mph83%30.08 "Hg10 mi
2:56 am60 °FClear.10 mph83%30.06 "Hg10 mi
1:56 am61 °FClear.10 mph81%30.06 "Hg10 mi
12:56 am62 °FClear.12 mph78%30.06 "Hg10 mi
Weather by CustomWeather, © 2019

See weather overview